BSAT-3B

Last updated on Wed Sep 17 2025 00:02:47 GMT+0000 (Coordinated Universal Time)

1 37207U 10056B 25259.59529238 -.00000369 00000+0 00000+0 0 9994 2 37207 0.0562 242.2197 0004427 328.9243 108.7957 1.00270508 49350
UTC large
Height (km)
Speed (km/s)
/
Latitude / Longitude
Inclination (degrees)
Orbital Period (minutes)
Azimuth
Elevation
Range (km)
Doppler Factor

Next 0 passes for location: London (51.5072 / 0.1276)

Sorry there are no passes over London.